Weather in Sapozhkovskiy

Russia / Novosibirsk Oblast     54°31′37″N   80°25′42″E
temp.,
°C
wind,
m/s
gust,
m/s
humid.,
%
clouds,
%
prec.,
mm/h
press.,
hPa
HPBL,
m
1 march, mon
mon101:00−10se6119499 0.4 1017417
04:00−8se61195100 1.4 1012455
07:00−6se5996100 3.0 1009351
10:00−5e2497100 0.8 1008142
13:00−3nnw1196100 1.4 1007173
16:00−2nne2397100 1.0 1006178
19:00−3ne3497100 2.9 1006171
22:00−7nne4696100 1.3 1007170
2 march, tue
tue201:00−9nne3496100 1.8 1009126
04:00−12n239691 0.2 101152
07:00−15nw239785 0.3 101322
10:00−16w239797 0.1 101565
13:00−14wsw349599 0.1 1016247
16:00−13wsw2494100 0.0 1016308
19:00−14wsw2296100 0.1 101621
22:00−15sw129795 0.1 101620
3 march, wed
wed301:00−16wsw129690 0.2 101520
04:00−17sw129779 0.1 101620
07:00−16sw129787 0.3 101720
10:00−15ssw249688 0.1 1017146
13:00−12sw359287 0.1 1018393
16:00−11sw4791100 0.1 1019523
19:00−13ssw4994100 0.1 1020266
22:00−16ssw5129597 0.0 1020295
4 march, thu
thu401:00−14s6129297 0.0 1020399
04:00−11ssw71393100 0.3 1018451
07:00−9ssw71493100 0.6 1018492
10:00−8ssw81491100 0.4 1016524
13:00−7ssw81493100 0.6 1016577
16:00−5ssw91592100 0.6 1014725
19:00−4ssw91689100 0.8 1013665
22:00−4ssw91788100 0.1 1012665
5 march, fri
fri501:00−5ssw81687100 0.1 1011517
04:00−6s7158699 0.0 1009418
07:00−7s71487100 0.0 1008408
10:00−6ssw71394100 0.3 1007473
13:00−1wsw81294100 0.6 1009939
16:00−4w8128598 0.2 1013840
19:00−8sw6148975 0.2 1018479
22:00−8ssw81687100 0.0 1018638